Location: Pedholt
(56.0260°N, 10.2097°E)
Time: 06:48:06
(UTC+00:00)

Transit 2A Rocket - Pass Details

Date: 03 August 2021
Orbit: 586 x 917 km, 66.7° (Epoch: 24 September)

Event Time Altitude Azimuth Distance (km) Brightness Sun altitude
Rises 17:35:53 0° 297° (WNW) 3,066 9.8 12.8°
Reaches altitude 10° 17:38:29 10° 310° (NW) 2,205 8.7 12.5°
Maximum altitude 17:42:43 26° 8° (N) 1,466 6.7 11.9°
Drops below altitude 10° 17:47:17 10° 64° (ENE) 2,393 7.2 11.3°
Sets 17:50:14 0° 77° (ENE) 3,382 7.8 10.9°
